Weather History for Burlington, WA

Change the Weather History Date:

Saturday, March 8, 2014

  Actual Average Record
Temperature  
Mean Temperature 48 °F -  
Max Temperature 53 °F 51 °F 62 °F (1984)
Min Temperature 44 °F 36 °F 25 °F (1974)
Degree Days  
Heating Degree Days 16    
Moisture  
Dew Point 49 °F    
Average Humidity 96    
Maximum Humidity 100    
Minimum Humidity 76    
Precipitation  
Precipitation 0.10 in - - ()
Sea Level Pressure  
Sea Level Pressure 29.89 in    
Wind  
Wind Speed 8 mph (SE)    
Max Wind Speed 15 mph    
Max Gust Speed 25 mph    
Visibility 10 miles    
Events      
Averages and records for this station are not official NWS values.
T = Trace of Precipitation, MM = Missing Value Source: NWS Daily Summary

Daily Weather History Graph

Daily Weather History Graph

Search for Another Location

Airport:

Trip Planner

Search our weather history database for the weather conditions in past years. The results will help you decide how hot, cold, wet, or windy it might be!

Date:

Astronomy

Mar. 08, 2014 Rise Set
Actual Time 6:36 AM PST 6:04 PM PST
Civil Twilight 6:05 AM PST 6:35 PM PST
Nautical Twilight 5:29 AM PST 7:12 PM PST
Astronomical Twilight 4:52 AM PST 7:49 PM PST
Moon 10:52 AM PST (3/8) 1:36 AM PST (3/8)
Length of Visible Light 12h 30m
Length of Day
11h 27m
First Quarter, 53% of the Moon is Illuminated
Mar 8
First Quarter
Mar 16
Full
Mar 23
Last Quarter
Mar 30
New
Apr 7
First Quarter

Hourly Weather History & Observations

Time (PST) Temp. Windchill Dew Point Humidity Pressure Visibility Wind Dir Wind Speed Gust Speed Precip Events Conditions
12:15 AM 44.6 °F 40.7 °F 44.6 °F 100% 30.12 in 10.0 mi East 6.9 mph - 0.00 in   Clear
12:35 AM 44.6 °F 39.2 °F 44.6 °F 100% 30.12 in 10.0 mi ENE 10.4 mph - 0.00 in   Clear
12:55 AM 44.6 °F 39.7 °F 44.6 °F 100% 30.11 in 10.0 mi East 9.2 mph - 0.00 in   Clear
1:15 AM 46.4 °F 40.7 °F 46.4 °F 100% 30.11 in 10.0 mi ENE 12.7 mph - 0.00 in   Clear
1:35 AM 46.4 °F 41.5 °F 46.4 °F 100% 30.10 in 10.0 mi East 10.4 mph - 0.00 in   Partly Cloudy
1:55 AM 46.4 °F 41.1 °F 46.4 °F 100% 30.09 in 10.0 mi East 11.5 mph - 0.00 in   Clear
2:15 AM 46.4 °F 41.5 °F 46.4 °F 100% 30.09 in 10.0 mi East 10.4 mph - 0.00 in   Clear
2:35 AM 46.4 °F 42.9 °F 46.4 °F 100% 30.08 in 10.0 mi East 6.9 mph - 0.00 in   Clear
2:55 AM 46.4 °F 42.9 °F 46.4 °F 100% 30.08 in 10.0 mi ENE 6.9 mph - 0.00 in   Clear
3:15 AM 46.4 °F 42.9 °F 46.4 °F 100% 30.07 in 10.0 mi East 6.9 mph - 0.00 in   Clear
3:35 AM 46.4 °F 45.2 °F 46.4 °F 100% 30.06 in 10.0 mi ESE 3.5 mph - 0.00 in   Clear
3:55 AM 46.4 °F - 46.4 °F 100% 30.05 in 10.0 mi Calm Calm - 0.00 in   Clear
4:15 AM 46.4 °F - 44.6 °F 93% 30.04 in 10.0 mi Calm Calm - 0.00 in   Clear
4:35 AM 46.4 °F 42.9 °F 46.4 °F 100% 30.03 in 10.0 mi East 6.9 mph - 0.00 in   Clear
4:55 AM 46.4 °F - 46.4 °F 100% 30.03 in 10.0 mi Calm Calm - 0.00 in   Clear
5:15 AM 46.4 °F 45.2 °F 44.6 °F 93% 30.03 in 10.0 mi ENE 3.5 mph - 0.00 in   Clear
5:35 AM 46.4 °F 43.5 °F 44.6 °F 93% 30.02 in 10.0 mi ENE 5.8 mph - 0.00 in   Clear
5:55 AM 46.4 °F 42.9 °F 44.6 °F 93% 30.01 in 10.0 mi East 6.9 mph - 0.00 in   Clear
6:15 AM 46.4 °F 44.3 °F 44.6 °F 93% 30.01 in 10.0 mi ENE 4.6 mph - 0.00 in   Partly Cloudy
6:35 AM 46.4 °F 42.4 °F 44.6 °F 93% 30.00 in 10.0 mi East 8.1 mph - 0.00 in   Clear
6:55 AM 46.4 °F 44.3 °F 44.6 °F 93% 30.00 in 10.0 mi East 4.6 mph - 0.00 in   Clear
7:15 AM 46.4 °F 45.2 °F 44.6 °F 93% 29.98 in 10.0 mi ENE 3.5 mph - 0.00 in   Partly Cloudy
7:35 AM 46.4 °F 43.5 °F 44.6 °F 93% 29.97 in 10.0 mi ENE 5.8 mph - 0.00 in   Partly Cloudy
7:55 AM 46.4 °F 43.5 °F 44.6 °F 93% 29.95 in 10.0 mi ENE 5.8 mph - 0.00 in   Clear
8:15 AM 46.4 °F 45.2 °F 44.6 °F 93% 29.95 in 10.0 mi ESE 3.5 mph - 0.00 in   Clear
8:35 AM 46.4 °F - 44.6 °F 93% 29.94 in 10.0 mi Calm Calm - 0.00 in   Partly Cloudy
8:55 AM 46.4 °F - 46.4 °F 100% 29.94 in 10.0 mi Calm Calm - 0.00 in   Partly Cloudy
9:15 AM 46.4 °F 45.2 °F 46.4 °F 100% 29.94 in 10.0 mi East 3.5 mph - 0.00 in   Partly Cloudy
9:35 AM 46.4 °F - 46.4 °F 100% 29.94 in 10.0 mi Calm Calm - 0.00 in   Partly Cloudy
9:55 AM 46.4 °F - 46.4 °F 100% 29.94 in 10.0 mi Calm Calm - 0.00 in   Clear
10:15 AM 48.2 °F - 44.6 °F 87% 29.94 in 9.0 mi South 6.9 mph - 0.00 in   Mostly Cloudy
10:35 AM 48.2 °F - 44.6 °F 87% 29.93 in 8.0 mi SSE 9.2 mph - 0.00 in   Mostly Cloudy
10:55 AM 50.0 °F - 44.6 °F 82% 29.93 in 10.0 mi SE 9.2 mph - 0.00 in   Mostly Cloudy
11:15 AM 51.8 °F - 44.6 °F 76% 29.91 in 10.0 mi SE 13.8 mph 18.4 mph 0.00 in   Overcast
11:35 AM 53.6 °F - 46.4 °F 77% 29.91 in 10.0 mi SSE 11.5 mph - 0.00 in   Overcast
11:55 AM 53.6 °F - 48.2 °F 82% 29.90 in 10.0 mi SE 12.7 mph 17.3 mph 0.00 in   Overcast
12:15 PM 53.6 °F - 48.2 °F 82% 29.89 in 10.0 mi SSE 9.2 mph 18.4 mph 0.00 in   Overcast
12:35 PM 53.6 °F - 46.4 °F 77% 29.89 in 10.0 mi SSE 15.0 mph 25.3 mph 0.00 in   Overcast
12:55 PM 53.6 °F - 48.2 °F 82% 29.88 in 10.0 mi SE 13.8 mph 23.0 mph 0.00 in   Overcast
1:15 PM 53.6 °F - 48.2 °F 82% 29.87 in 10.0 mi SSE 11.5 mph 21.9 mph 0.00 in   Overcast
1:35 PM 53.6 °F - 48.2 °F 82% 29.86 in 10.0 mi SE 13.8 mph 21.9 mph 0.00 in   Mostly Cloudy
1:55 PM 51.8 °F - 51.8 °F 100% 29.84 in 10.0 mi SE 12.7 mph 20.7 mph 0.00 in   Mostly Cloudy
2:15 PM 51.8 °F - 51.8 °F 100% 29.83 in 10.0 mi ESE 10.4 mph - 0.00 in   Mostly Cloudy
2:35 PM 51.8 °F - 51.8 °F 100% 29.81 in 10.0 mi East 12.7 mph 16.1 mph 0.00 in   Mostly Cloudy
2:55 PM 51.8 °F - 51.8 °F 100% 29.80 in 10.0 mi ESE 10.4 mph - 0.00 in   Overcast
3:15 PM 51.8 °F - 51.8 °F 100% 29.79 in 10.0 mi ESE 13.8 mph - 0.00 in   Overcast
3:40 PM 51.8 °F - 51.8 °F 100% 29.78 in 10.0 mi SE 8.1 mph 16.1 mph 0.00 in   Overcast
3:55 PM 53.6 °F - 53.6 °F 100% 29.78 in 10.0 mi SE 6.9 mph - 0.00 in   Overcast
4:15 PM 53.6 °F - 53.6 °F 100% 29.76 in 10.0 mi SSE 9.2 mph - 0.00 in   Overcast
4:35 PM 53.6 °F - 53.6 °F 100% 29.75 in 10.0 mi SSE 11.5 mph 20.7 mph 0.00 in   Overcast
4:55 PM 53.6 °F - 53.6 °F 100% 29.75 in 10.0 mi SSE 12.7 mph 18.4 mph 0.00 in   Overcast
5:15 PM 53.6 °F - 53.6 °F 100% 29.74 in 10.0 mi SSE 10.4 mph 23.0 mph 0.00 in   Overcast
5:35 PM 53.6 °F - 53.6 °F 100% 29.74 in 10.0 mi SSE 11.5 mph 20.7 mph 0.00 in   Overcast
5:55 PM 53.6 °F - 53.6 °F 100% 29.73 in 10.0 mi SSE 11.5 mph 17.3 mph 0.00 in   Overcast
6:15 PM 53.6 °F - 53.6 °F 100% 29.73 in 10.0 mi South 11.5 mph 21.9 mph 0.00 in   Overcast
6:35 PM 53.6 °F - 53.6 °F 100% 29.73 in 9.0 mi South 12.7 mph 19.6 mph 0.00 in   Overcast
6:55 PM 53.6 °F - 53.6 °F 100% 29.72 in 9.0 mi South 10.4 mph 17.3 mph 0.01 in   Overcast
7:15 PM 53.6 °F - 53.6 °F 100% 29.72 in 10.0 mi South 10.4 mph - 0.00 in   Overcast
7:35 PM 53.6 °F - 53.6 °F 100% 29.72 in 9.0 mi South 9.2 mph 18.4 mph 0.01 in   Overcast
7:55 PM 53.6 °F - 53.6 °F 100% 29.72 in 8.0 mi South 10.4 mph 18.4 mph 0.01 in   Overcast
8:15 PM 53.6 °F - 53.6 °F 100% 29.72 in 7.0 mi South 10.4 mph 17.3 mph 0.02 in   Overcast
8:35 PM 53.6 °F - 53.6 °F 100% 29.72 in 8.0 mi South 10.4 mph 16.1 mph 0.03 in   Overcast
8:55 PM 53.6 °F - 53.6 °F 100% 29.73 in 8.0 mi South 11.5 mph 16.1 mph 0.04 in   Overcast
9:15 PM 53.6 °F - 53.6 °F 100% 29.73 in 7.0 mi South 10.4 mph 17.3 mph 0.02 in   Overcast
9:35 PM 53.6 °F - 53.6 °F 100% 29.73 in 7.0 mi South 11.5 mph 18.4 mph 0.02 in   Overcast
9:55 PM 53.6 °F - 53.6 °F 100% 29.74 in 8.0 mi South 8.1 mph - 0.03 in   Overcast
10:15 PM 53.6 °F - 53.6 °F 100% 29.74 in 8.0 mi South 10.4 mph 16.1 mph 0.00 in   Overcast
10:35 PM 53.6 °F - 53.6 °F 100% 29.74 in 10.0 mi South 10.4 mph 18.4 mph 0.00 in   Overcast
10:55 PM 53.6 °F - 53.6 °F 100% 29.74 in 10.0 mi South 11.5 mph 18.4 mph 0.01 in   Overcast
11:15 PM 53.6 °F - 53.6 °F 100% 29.75 in 10.0 mi South 10.4 mph 17.3 mph 0.00 in   Overcast
11:35 PM 53.6 °F - 53.6 °F 100% 29.76 in 10.0 mi South 11.5 mph 20.7 mph 0.00 in   Overcast
11:55 PM 53.6 °F - 53.6 °F 100% 29.79 in 10.0 mi SSW 11.5 mph 17.3 mph 0.00 in   Overcast